Вернуться в каталог

FENGYUN 1C DEB

LostSSO
NORAD 36691·DEBRIS·🇨🇳 China

Запущен May 10, 1999 с Taiyuan Satellite Launch Center

Loading…

Ближайшие Пролёты (ближайшие 24 часа)

TLE

УстаревшееSource: Space-Track

Эпоха: Jan 2, 2026, 15:05 UTC

1 36691U 99025DZM 26002.62869803  .00006879  00000-0  38245-2 0  9996
2 36691  98.6510   6.8744 0126439 176.6472 183.5574 14.07373728599034

Отслеживайте FENGYUN 1C DEB в реальном времени с AllMySat

Download on the App Store